Weather in Sulak

Russia / Republic of Dagestan     43°16′23″N   47°30′56″E
temp.,
°C
wind,
m/s
gust,
m/s
humid.,
%
clouds,
%
prec.,
mm/h
press.,
hPa
HPBL,
m
8 august, mon
mon800:00+25wnw3471100 0.0 1009103
03:00+24w4665100 0.1 1010154
06:00+24wnw6959100 0.1 1010220
09:00+27wnw6554100 0.1 1012498
12:00+26ssw7657100 0.1 1013356
15:00+25sse445593 0.6 1014521
18:00+25sse3363100 0.2 1014278
21:00+24sse226325 0.2 101491
9 august, tue
tue900:00+23se22704 0.0 1014138
03:00+22wsw22721 0.0 1014110
06:00+22w33680 0.0 1015100
09:00+26n11490 0.0 1015560
12:00+28ene55460 0.0 1014754
15:00+29e55430 0.0 1014772
18:00+27ese33520 0.0 1014370
21:00+26ese33620 0.0 101443
10 august, wed
wed1000:00+25ese34610 0.0 101363
03:00+25se45680 0.0 1012102
06:00+25sse35640 0.0 1012145
09:00+28ese68490 0.0 1012656
12:00+29ese89510 0.0 1011810
15:00+29ese911530 0.0 1010781
18:00+27ese913630 0.0 1010630
21:00+26ese812700 0.0 1010389
11 august, thu
thu1100:00+26ese813720 0.0 1009365
03:00+26ese914720 0.0 1008376
06:00+26se1015690 0.0 1008501
09:00+28ese1116600 0.0 1009792
12:00+29ese1217630 0.0 1008913
15:00+29se1217630 0.0 1008754
18:00+28ese1218655 0.0 1009756
21:00+27ese1017663 0.0 1010532
12 august, fri
fri1200:00+27se915675 0.1 1010352
03:00+26ese711730 0.2 1010275
06:00+27ese915690 0.0 1011494
09:00+29ese912570 0.0 1011584
12:00+29ese1114600 0.0 1011661
15:00+29ese1115600 0.0 1011692
18:00+27ese1016640 0.0 1012601
21:00+27se815670 0.0 1012321